| time (UTC) | temp C | wind direction | speed KPH | gust KPH | rain 1hr cm | rain 24hr cm | rain mn cm | humidity % | barometer mb |
| 20260506092029 | 15 | 0 | 0.0 | 0.0 | 0.00 | 0.00 | 0.00 | 93 | 1016.8 |
| 20260506091540 | 15 | 0 | 0.0 | 0.0 | 0.00 | 0.00 | 0.00 | 92 | 1016.8 |
| 20260506091028 | 15 | 0 | 0.0 | 0.0 | 0.00 | 0.00 | 0.00 | 93 | 1016.7 |
| 20260506090531 | 15 | 0 | 0.0 | 0.0 | 0.00 | 0.00 | 0.00 | 93 | 1016.6 |
| 20260506090045 | 15 | 0 | 0.0 | 0.0 | 0.00 | 0.00 | 0.00 | 92 | 1016.8 |
| 20260506085529 | 15 | 0 | 0.0 | 0.0 | 0.00 | 0.00 | 0.00 | 92 | 1016.8 |
| 20260506085030 | 15 | 0 | 0.0 | 0.0 | 0.00 | 0.00 | 0.00 | 92 | 1016.8 |
| 20260506084546 | 15 | 0 | 0.0 | 0.0 | 0.00 | 0.00 | 0.00 | 92 | 1016.8 |
| 20260506084030 | 15 | 0 | 0.0 | 0.0 | 0.00 | 0.00 | 0.00 | 92 | 1016.8 |
| 20260506083530 | 15 | 0 | 0.0 | 0.0 | 0.00 | 0.00 | 0.00 | 92 | 1016.8 |
| 20260506083043 | 16 | 0 | 0.0 | 0.0 | 0.00 | 0.00 | 0.00 | 92 | 1016.9 |
| 20260506082529 | 16 | 0 | 0.0 | 0.0 | 0.00 | 0.00 | 0.00 | 92 | 1016.9 |
| 20260506082029 | 16 | 0 | 0.0 | 0.0 | 0.00 | 0.00 | 0.00 | 92 | 1016.8 |
| 20260506081546 | 16 | 0 | 0.0 | 0.0 | 0.00 | 0.00 | 0.00 | 92 | 1016.7 |
| 20260506081033 | 16 | 0 | 0.0 | 0.0 | 0.00 | 0.00 | 0.00 | 92 | 1016.8 |
| 20260506080529 | 16 | 0 | 0.0 | 0.0 | 0.00 | 0.00 | 0.00 | 93 | 1016.8 |
| 20260506073047 | 16 | 218 | 0.0 | 1.6 | 0.00 | 0.00 | 0.00 | 93 | 1017.0 |
| 20260506072529 | 16 | 218 | 0.0 | 1.6 | 0.00 | 0.00 | 0.00 | 94 | 1016.9 |
| 20260506072031 | 15 | 0 | 0.0 | 1.6 | 0.00 | 0.00 | 0.00 | 94 | 1017.0 |
| 20260506071554 | 15 | 0 | 0.0 | 1.6 | 0.00 | 0.00 | 0.00 | 94 | 1017.1 |
| 20260506071033 | 15 | 0 | 0.0 | 1.6 | 0.00 | 0.00 | 0.00 | 93 | 1017.1 |
| 20260506070531 | 15 | 0 | 0.0 | 0.0 | 0.00 | 0.00 | 0.00 | 93 | 1017.1 |
| 20260506062032 | 16 | 0 | 0.0 | 0.0 | 0.00 | 0.00 | 0.00 | 91 | 1017.1 |
| 20260506061551 | 16 | 0 | 0.0 | 0.0 | 0.00 | 0.00 | 0.00 | 91 | 1017.0 |
| 20260506061029 | 16 | 0 | 0.0 | 0.0 | 0.00 | 0.00 | 0.00 | 90 | 1017.3 |
| 20260506060529 | 16 | 0 | 0.0 | 1.6 | 0.00 | 0.00 | 0.00 | 90 | 1017.2 |
| 20260506051033 | 17 | 0 | 0.0 | 3.2 | 0.00 | 0.00 | 0.00 | 89 | 1017.9 |
| 20260506050530 | 17 | 0 | 0.0 | 1.6 | 0.00 | 0.00 | 0.00 | 89 | 1018.1 |
| 20260506045030 | 17 | 0 | 0.0 | 1.6 | 0.00 | 0.00 | 0.00 | 89 | 1017.9 |
| 20260506044553 | 17 | 0 | 0.0 | 1.6 | 0.00 | 0.00 | 0.00 | 89 | 1018.3 |
| 20260506044029 | 17 | 0 | 0.0 | 1.6 | 0.00 | 0.00 | 0.00 | 89 | 1018.2 |
| 20260506043529 | 17 | 0 | 0.0 | 1.6 | 0.00 | 0.00 | 0.00 | 88 | 1018.3 |
| 20260506043044 | 17 | 0 | 0.0 | 1.6 | 0.00 | 0.00 | 0.00 | 88 | 1018.3 |
| 20260506042530 | 17 | 252 | 0.0 | 1.6 | 0.00 | 0.00 | 0.00 | 88 | 1018.5 |
| 20260506042030 | 17 | 0 | 0.0 | 1.6 | 0.00 | 0.00 | 0.00 | 87 | 1018.3 |
| 20260506041542 | 17 | 0 | 0.0 | 1.6 | 0.00 | 0.00 | 0.00 | 87 | 1018.3 |
| 20260506041029 | 17 | 0 | 0.0 | 3.2 | 0.00 | 0.00 | 0.00 | 87 | 1018.4 |
| 20260506040529 | 17 | 230 | 0.0 | 3.2 | 0.00 | 0.00 | 0.00 | 87 | 1018.5 |
| 20260506040047 | 17 | 215 | 0.0 | 3.2 | 0.00 | 0.00 | 0.00 | 86 | 1018.5 |
| 20260506035532 | 17 | 0 | 0.0 | 1.6 | 0.00 | 0.00 | 0.00 | 86 | 1018.4 |
| 20260506035029 | 17 | 236 | 0.0 | 1.6 | 0.00 | 0.00 | 0.00 | 86 | 1018.4 |
| 20260506034539 | 17 | 0 | 0.0 | 1.6 | 0.00 | 0.00 | 0.00 | 86 | 1018.5 |
| 20260506034028 | 17 | 236 | 0.0 | 1.6 | 0.00 | 0.00 | 0.00 | 86 | 1018.5 |
| 20260506033528 | 17 | 0 | 0.0 | 1.6 | 0.00 | 0.00 | 0.00 | 86 | 1018.5 |
| 20260506033041 | 17 | 0 | 0.0 | 1.6 | 0.00 | 0.00 | 0.00 | 86 | 1018.5 |
| 20260506032530 | 17 | 0 | 0.0 | 1.6 | 0.00 | 0.00 | 0.00 | 85 | 1018.5 |
| 20260506032030 | 17 | 236 | 0.0 | 0.0 | 0.00 | 0.00 | 0.00 | 85 | 1018.4 |
| 20260506031545 | 18 | 0 | 0.0 | 3.2 | 0.00 | 0.00 | 0.00 | 85 | 1018.5 |
| 20260506031030 | 18 | 0 | 0.0 | 3.2 | 0.00 | 0.00 | 0.00 | 84 | 1018.7 |
| 20260506030529 | 18 | 237 | 0.0 | 3.2 | 0.00 | 0.00 | 0.00 | 84 | 1018.6 |
| 20260506030047 | 18 | 0 | 0.0 | 3.2 | 0.00 | 0.00 | 0.00 | 84 | 1018.6 |
| 20260506025608 | 18 | 228 | 0.0 | 1.6 | 0.00 | 0.00 | 0.00 | 84 | 1018.7 |
| 20260506025031 | 18 | 226 | 0.0 | 3.2 | 0.00 | 0.00 | 0.00 | 83 | 1018.6 |
| 20260506024549 | 18 | 154 | 0.0 | 3.2 | 0.00 | 0.00 | 0.00 | 83 | 1018.6 |
| 20260506024029 | 18 | 139 | 0.0 | 3.2 | 0.00 | 0.00 | 0.00 | 83 | 1018.5 |
| 20260506023529 | 18 | 0 | 0.0 | 3.2 | 0.00 | 0.00 | 0.00 | 83 | 1018.7 |
| 20260506023055 | 18 | 199 | 0.0 | 3.2 | 0.00 | 0.00 | 0.00 | 82 | 1018.7 |
| 20260506022529 | 18 | 0 | 1.6 | 4.8 | 0.00 | 0.00 | 0.00 | 82 | 1018.7 |
| 20260506022032 | 18 | 0 | 0.0 | 6.4 | 0.00 | 0.00 | 0.00 | 82 | 1018.7 |
| 20260506021555 | 18 | 211 | 3.2 | 6.4 | 0.00 | 0.00 | 0.00 | 83 | 1018.7 |
| 20260506021029 | 18 | 232 | 1.6 | 6.4 | 0.00 | 0.00 | 0.00 | 82 | 1018.6 |
| 20260506020530 | 18 | 231 | 3.2 | 6.4 | 0.00 | 0.00 | 0.00 | 82 | 1018.5 |
| 20260506020047 | 18 | 225 | 1.6 | 6.4 | 0.00 | 0.00 | 0.00 | 82 | 1018.5 |
| 20260506015535 | 18 | 174 | 0.0 | 1.6 | 0.00 | 0.00 | 0.00 | 81 | 1018.4 |
| 20260506015034 | 18 | 198 | 0.0 | 4.8 | 0.00 | 0.00 | 0.00 | 81 | 1018.3 |
| 20260506014546 | 18 | 232 | 1.6 | 4.8 | 0.00 | 0.00 | 0.00 | 81 | 1018.4 |
| 20260506014029 | 18 | 226 | 1.6 | 4.8 | 0.00 | 0.00 | 0.00 | 81 | 1018.3 |
| 20260506013529 | 18 | 231 | 1.6 | 3.2 | 0.00 | 0.00 | 0.00 | 81 | 1018.4 |
| 20260506013042 | 18 | 175 | 0.0 | 4.8 | 0.00 | 0.00 | 0.00 | 81 | 1018.3 |
| 20260506012533 | 18 | 189 | 0.0 | 4.8 | 0.00 | 0.00 | 0.00 | 80 | 1018.2 |
| 20260506012029 | 18 | 206 | 1.6 | 4.8 | 0.00 | 0.00 | 0.00 | 80 | 1018.2 |
| 20260506011542 | 18 | 204 | 1.6 | 4.8 | 0.00 | 0.00 | 0.00 | 79 | 1018.3 |
| 20260506011029 | 18 | 226 | 0.0 | 3.2 | 0.00 | 0.00 | 0.00 | 79 | 1018.2 |
| 20260506010529 | 18 | 226 | 0.0 | 3.2 | 0.00 | 0.00 | 0.00 | 78 | 1018.3 |
| 20260506010054 | 18 | 139 | 1.6 | 3.2 | 0.00 | 0.00 | 0.00 | 77 | 1018.3 |
| 20260506005530 | 18 | 205 | 0.0 | 3.2 | 0.00 | 0.00 | 0.00 | 77 | 1018.1 |
| 20260506005032 | 18 | 202 | 0.0 | 4.8 | 0.00 | 0.00 | 0.00 | 76 | 1018.2 |
| 20260506004551 | 18 | 197 | 1.6 | 4.8 | 0.00 | 0.00 | 0.00 | 76 | 1018.1 |
| 20260506004030 | 19 | 127 | 0.0 | 3.2 | 0.00 | 0.00 | 0.00 | 75 | 1018.1 |
| 20260506003530 | 19 | 134 | 0.0 | 4.8 | 0.00 | 0.00 | 0.00 | 75 | 1018.0 |
| 20260506003045 | 19 | 160 | 1.6 | 4.8 | 0.00 | 0.00 | 0.00 | 74 | 1018.1 |
| 20260506002533 | 19 | 219 | 1.6 | 8.0 | 0.00 | 0.00 | 0.00 | 73 | 1018.2 |
| 20260506002029 | 20 | 0 | 1.6 | 12.9 | 0.00 | 0.00 | 0.00 | 73 | 1018.0 |
| 20260506001546 | 20 | 181 | 3.2 | 12.9 | 0.00 | 0.00 | 0.00 | 72 | 1018.1 |
| 20260506001030 | 20 | 218 | 4.8 | 11.3 | 0.00 | 0.00 | 0.00 | 72 | 1018.1 |
| 20260506000530 | 20 | 233 | 4.8 | 11.3 | 0.00 | 0.00 | 0.00 | 71 | 1018.1 |
| 20260506000041 | 20 | 224 | 6.4 | 11.3 | 0.00 | 0.00 | 0.00 | 71 | 1018.0 |
| 20260505235529 | 20 | 205 | 4.8 | 16.1 | 0.00 | 0.00 | 0.00 | 70 | 1018.1 |
| 20260505235029 | 20 | 229 | 6.4 | 16.1 | 0.00 | 0.00 | 0.00 | 69 | 1018.0 |
| 20260505234601 | 20 | 205 | 9.7 | 16.1 | 0.00 | 0.00 | 0.00 | 69 | 1017.9 |
| 20260505234032 | 21 | 233 | 8.0 | 16.1 | 0.00 | 0.00 | 0.00 | 68 | 1018.0 |
| 20260505233529 | 21 | 250 | 11.3 | 16.1 | 0.00 | 0.00 | 0.00 | 68 | 1018.0 |
| 20260505233046 | 21 | 224 | 8.0 | 17.7 | 0.00 | 0.00 | 0.00 | 67 | 1018.1 |
| 20260505232529 | 21 | 236 | 8.0 | 17.7 | 0.00 | 0.00 | 0.00 | 67 | 1018.0 |
| 20260505232029 | 21 | 219 | 8.0 | 14.5 | 0.00 | 0.00 | 0.00 | 66 | 1018.1 |
| 20260505231540 | 21 | 257 | 8.0 | 20.9 | 0.00 | 0.00 | 0.00 | 65 | 1018.1 |
| 20260505231028 | 21 | 236 | 8.0 | 22.5 | 0.00 | 0.00 | 0.00 | 65 | 1018.0 |
| 20260505230529 | 21 | 206 | 12.9 | 27.4 | 0.00 | 0.00 | 0.00 | 64 | 1018.0 |
| 20260505230045 | 21 | 224 | 11.3 | 27.4 | 0.00 | 0.00 | 0.00 | 64 | 1018.0 |
| 20260505225530 | 21 | 193 | 12.9 | 24.1 | 0.00 | 0.00 | 0.00 | 64 | 1018.0 |
| 20260505225030 | 22 | 235 | 12.9 | 27.4 | 0.00 | 0.00 | 0.00 | 63 | 1018.0 |
| 20260505224543 | 22 | 229 | 16.1 | 27.4 | 0.00 | 0.00 | 0.00 | 63 | 1018.1 |
| 20260505224033 | 22 | 158 | 14.5 | 24.1 | 0.00 | 0.00 | 0.00 | 62 | 1018.1 |
| 20260505223529 | 22 | 167 | 12.9 | 24.1 | 0.00 | 0.00 | 0.00 | 62 | 1017.9 |
| 20260505223045 | 22 | 220 | 16.1 | 24.1 | 0.00 | 0.00 | 0.00 | 62 | 1018.0 |
| 20260505222533 | 22 | 223 | 9.7 | 20.9 | 0.00 | 0.00 | 0.00 | 63 | 1018.0 |
| 20260505222029 | 22 | 273 | 11.3 | 17.7 | 0.00 | 0.00 | 0.00 | 63 | 1017.9 |
| 20260505221546 | 22 | 250 | 9.7 | 20.9 | 0.00 | 0.00 | 0.00 | 62 | 1018.0 |
| 20260505221031 | 22 | 234 | 11.3 | 20.9 | 0.00 | 0.00 | 0.00 | 62 | 1018.0 |
| 20260505220529 | 22 | 220 | 9.7 | 29.0 | 0.00 | 0.00 | 0.00 | 63 | 1017.9 |
| 20260505220042 | 22 | 174 | 12.9 | 29.0 | 0.00 | 0.00 | 0.00 | 63 | 1017.8 |
| 20260505215529 | 22 | 231 | 12.9 | 30.6 | 0.00 | 0.00 | 0.00 | 63 | 1017.9 |
| 20260505215029 | 22 | 158 | 16.1 | 30.6 | 0.00 | 0.00 | 0.00 | 63 | 1017.9 |
| 20260505214603 | 22 | 172 | 12.9 | 30.6 | 0.00 | 0.00 | 0.00 | 61 | 1017.9 |
| 20260505214030 | 22 | 221 | 12.9 | 30.6 | 0.00 | 0.00 | 0.00 | 62 | 1017.8 |
| 20260505213529 | 22 | 201 | 11.3 | 25.7 | 0.00 | 0.00 | 0.00 | 63 | 1017.8 |
| 20260505213057 | 22 | 236 | 12.9 | 30.6 | 0.00 | 0.00 | 0.00 | 63 | 1017.8 |
| 20260505212531 | 22 | 219 | 20.9 | 30.6 | 0.00 | 0.00 | 0.00 | 64 | 1017.8 |
| 20260505212029 | 22 | 226 | 14.5 | 33.8 | 0.00 | 0.00 | 0.00 | 63 | 1017.8 |
| 20260505211548 | 22 | 173 | 14.5 | 33.8 | 0.00 | 0.00 | 0.00 | 63 | 1017.9 |
| 20260505211033 | 22 | 228 | 12.9 | 22.5 | 0.00 | 0.00 | 0.00 | 63 | 1017.8 |
| 20260505210530 | 22 | 222 | 11.3 | 27.4 | 0.00 | 0.00 | 0.00 | 62 | 1018.0 |
| 20260505210042 | 22 | 166 | 12.9 | 27.4 | 0.00 | 0.00 | 0.00 | 62 | 1018.2 |
| 20260505205529 | 22 | 211 | 9.7 | 25.7 | 0.00 | 0.00 | 0.00 | 61 | 1018.1 |
| 20260505205029 | 22 | 209 | 9.7 | 25.7 | 0.00 | 0.00 | 0.00 | 62 | 1017.9 |
| 20260505204554 | 22 | 159 | 9.7 | 25.7 | 0.00 | 0.00 | 0.00 | 63 | 1018.0 |
| 20260505204029 | 22 | 210 | 16.1 | 25.7 | 0.00 | 0.00 | 0.00 | 63 | 1018.0 |
| 20260505203530 | 22 | 203 | 11.3 | 33.8 | 0.00 | 0.00 | 0.00 | 63 | 1018.2 |
| 20260505203052 | 22 | 184 | 20.9 | 33.8 | 0.00 | 0.00 | 0.00 | 62 | 1018.0 |
| 20260505202530 | 22 | 185 | 14.5 | 32.2 | 0.00 | 0.00 | 0.00 | 62 | 1018.0 |
| 20260505202030 | 22 | 200 | 14.5 | 32.2 | 0.00 | 0.00 | 0.00 | 64 | 1018.0 |
| 20260505201545 | 22 | 226 | 17.7 | 27.4 | 0.00 | 0.00 | 0.00 | 60 | 1018.1 |
| 20260505201031 | 23 | 162 | 16.1 | 25.7 | 0.00 | 0.00 | 0.00 | 62 | 1018.2 |
| 20260505200530 | 23 | 229 | 14.5 | 24.1 | 0.00 | 0.00 | 0.00 | 62 | 1018.3 |
| 20260505200057 | 23 | 162 | 11.3 | 22.5 | 0.00 | 0.00 | 0.00 | 62 | 1018.3 |
| 20260505195529 | 23 | 243 | 9.7 | 22.5 | 0.00 | 0.00 | 0.00 | 63 | 1018.5 |
| 20260505195029 | 23 | 256 | 12.9 | 22.5 | 0.00 | 0.00 | 0.00 | 64 | 1018.6 |
| 20260505194547 | 22 | 215 | 9.7 | 27.4 | 0.00 | 0.00 | 0.00 | 63 | 1018.5 |
| 20260505194029 | 22 | 129 | 11.3 | 27.4 | 0.00 | 0.00 | 0.00 | 64 | 1018.6 |
| 20260505193528 | 22 | 231 | 14.5 | 27.4 | 0.00 | 0.00 | 0.00 | 63 | 1018.7 |
| 20260505193048 | 23 | 193 | 14.5 | 25.7 | 0.00 | 0.00 | 0.00 | 63 | 1018.7 |
| 20260505192533 | 23 | 196 | 9.7 | 20.9 | 0.00 | 0.00 | 0.00 | 64 | 1018.8 |
| 20260505192029 | 22 | 196 | 9.7 | 25.7 | 0.00 | 0.00 | 0.00 | 65 | 1018.8 |
| 20260505191539 | 22 | 243 | 14.5 | 25.7 | 0.00 | 0.00 | 0.00 | 65 | 1018.9 |
| 20260505191029 | 22 | 251 | 16.1 | 25.7 | 0.00 | 0.00 | 0.00 | 63 | 1018.9 |
| 20260505190529 | 22 | 173 | 14.5 | 29.0 | 0.00 | 0.00 | 0.00 | 64 | 1019.0 |
| 20260505190045 | 22 | 245 | 17.7 | 29.0 | 0.00 | 0.00 | 0.00 | 64 | 1019.0 |
| 20260505185531 | 22 | 252 | 14.5 | 25.7 | 0.00 | 0.00 | 0.00 | 64 | 1019.1 |
| 20260505185029 | 22 | 165 | 12.9 | 27.4 | 0.00 | 0.00 | 0.00 | 64 | 1019.1 |
| 20260505184545 | 22 | 223 | 16.1 | 27.4 | 0.00 | 0.00 | 0.00 | 65 | 1019.0 |
| 20260505184030 | 22 | 220 | 17.7 | 27.4 | 0.00 | 0.00 | 0.00 | 64 | 1019.2 |
| 20260505183529 | 22 | 226 | 14.5 | 32.2 | 0.00 | 0.00 | 0.00 | 63 | 1019.2 |
| 20260505183042 | 22 | 206 | 16.1 | 32.2 | 0.00 | 0.00 | 0.00 | 64 | 1019.1 |
| 20260505182529 | 22 | 211 | 14.5 | 30.6 | 0.00 | 0.00 | 0.00 | 64 | 1019.3 |
| 20260505182029 | 22 | 211 | 20.9 | 30.6 | 0.00 | 0.00 | 0.00 | 63 | 1019.3 |
| 20260505181542 | 23 | 246 | 16.1 | 29.0 | 0.00 | 0.00 | 0.00 | 61 | 1019.1 |
| 20260505181029 | 22 | 194 | 16.1 | 27.4 | 0.00 | 0.00 | 0.00 | 64 | 1019.3 |
| 20260505180529 | 22 | 242 | 16.1 | 32.2 | 0.00 | 0.00 | 0.00 | 63 | 1019.2 |
| 20260505175530 | 23 | 229 | 8.0 | 29.0 | 0.00 | 0.00 | 0.00 | 63 | 1019.2 |
| 20260505175032 | 22 | 233 | 12.9 | 29.0 | 0.00 | 0.00 | 0.00 | 62 | 1019.2 |
| 20260505174559 | 23 | 146 | 12.9 | 29.0 | 0.00 | 0.00 | 0.00 | 61 | 1019.3 |
| 20260505174029 | 23 | 200 | 12.9 | 22.5 | 0.00 | 0.00 | 0.00 | 62 | 1019.2 |
| 20260505173531 | 23 | 194 | 11.3 | 25.7 | 0.00 | 0.00 | 0.00 | 62 | 1019.2 |
| 20260505173046 | 23 | 193 | 14.5 | 30.6 | 0.00 | 0.00 | 0.00 | 61 | 1019.2 |
| 20260505172531 | 23 | 182 | 11.3 | 30.6 | 0.00 | 0.00 | 0.00 | 61 | 1019.2 |
| 20260505172029 | 22 | 152 | 11.3 | 22.5 | 0.00 | 0.00 | 0.00 | 60 | 1019.1 |
| 20260505171542 | 23 | 153 | 12.9 | 22.5 | 0.00 | 0.00 | 0.00 | 60 | 1019.2 |
| 20260505171030 | 23 | 209 | 11.3 | 27.4 | 0.00 | 0.00 | 0.00 | 62 | 1019.2 |
| 20260505170529 | 23 | 226 | 12.9 | 27.4 | 0.00 | 0.00 | 0.00 | 59 | 1019.2 |
| 20260505170041 | 23 | 153 | 12.9 | 25.7 | 0.00 | 0.00 | 0.00 | 59 | 1019.2 |
| 20260505165529 | 23 | 203 | 9.7 | 25.7 | 0.00 | 0.00 | 0.00 | 59 | 1019.3 |
| 20260505165029 | 23 | 243 | 8.0 | 25.7 | 0.00 | 0.00 | 0.00 | 60 | 1019.3 |
| 20260505164548 | 23 | 168 | 12.9 | 25.7 | 0.00 | 0.00 | 0.00 | 60 | 1019.4 |
| 20260505164029 | 23 | 210 | 12.9 | 25.7 | 0.00 | 0.00 | 0.00 | 60 | 1019.4 |
| 20260505163529 | 23 | 152 | 8.0 | 24.1 | 0.00 | 0.00 | 0.00 | 59 | 1019.6 |
| 20260505163047 | 23 | 280 | 9.7 | 25.7 | 0.00 | 0.00 | 0.00 | 61 | 1019.5 |
| 20260505162528 | 22 | 231 | 17.7 | 25.7 | 0.00 | 0.00 | 0.00 | 60 | 1019.4 |
| 20260505162029 | 22 | 250 | 12.9 | 22.5 | 0.00 | 0.00 | 0.00 | 61 | 1019.4 |
| 20260505161549 | 22 | 243 | 12.9 | 22.5 | 0.00 | 0.00 | 0.00 | 60 | 1019.4 |
| 20260505161032 | 22 | 214 | 12.9 | 19.3 | 0.00 | 0.00 | 0.00 | 59 | 1019.5 |
| 20260505160530 | 22 | 292 | 8.0 | 24.1 | 0.00 | 0.00 | 0.00 | 59 | 1019.5 |
| 20260505153042 | 23 | 191 | 9.7 | 22.5 | 0.00 | 0.00 | 0.00 | 56 | 1019.7 |
| 20260505152532 | 23 | 179 | 12.9 | 22.5 | 0.00 | 0.00 | 0.00 | 56 | 1019.5 |
| 20260505152029 | 23 | 248 | 11.3 | 22.5 | 0.00 | 0.00 | 0.00 | 55 | 1019.6 |
| 20260505151549 | 23 | 218 | 8.0 | 22.5 | 0.00 | 0.00 | 0.00 | 55 | 1019.7 |
| 20260505151029 | 22 | 233 | 12.9 | 22.5 | 0.00 | 0.00 | 0.00 | 53 | 1019.6 |
| 20260505150531 | 22 | 262 | 8.0 | 20.9 | 0.00 | 0.00 | 0.00 | 57 | 1019.6 |
| 20260505140529 | 22 | 243 | 11.3 | 19.3 | 0.00 | 0.00 | 0.00 | 57 | 1019.6 |
| 20260505125029 | 20 | 214 | 6.4 | 12.9 | 0.00 | 0.00 | 0.00 | 72 | 1019.7 |
| 20260505124546 | 20 | 210 | 4.8 | 11.3 | 0.00 | 0.00 | 0.00 | 74 | 1019.5 |
| 20260505124029 | 20 | 222 | 6.4 | 11.3 | 0.00 | 0.00 | 0.00 | 76 | 1019.6 |
| 20260505123530 | 19 | 240 | 4.8 | 11.3 | 0.00 | 0.00 | 0.00 | 77 | 1019.5 |
| 20260505123041 | 19 | 245 | 4.8 | 11.3 | 0.00 | 0.00 | 0.00 | 79 | 1019.7 |
| 20260505122529 | 19 | 221 | 4.8 | 8.0 | 0.00 | 0.00 | 0.00 | 80 | 1019.7 |
| 20260505122035 | 18 | 207 | 6.4 | 8.0 | 0.00 | 0.00 | 0.00 | 81 | 1019.6 |
| 20260505121546 | 18 | 222 | 1.6 | 6.4 | 0.00 | 0.00 | 0.00 | 82 | 1019.5 |
| 20260505121029 | 18 | 214 | 1.6 | 4.8 | 0.00 | 0.00 | 0.00 | 84 | 1019.4 |
| 20260505120529 | 18 | 213 | 1.6 | 3.2 | 0.00 | 0.00 | 0.00 | 84 | 1019.5 |
| 20260505120045 | 18 | 213 | 1.6 | 3.2 | 0.00 | 0.00 | 0.00 | 84 | 1019.4 |
| 20260505115529 | 18 | 231 | 0.0 | 0.0 | 0.00 | 0.00 | 0.00 | 85 | 1019.4 |
| 20260505115030 | 18 | 0 | 0.0 | 0.0 | 0.00 | 0.00 | 0.00 | 87 | 1019.3 |
| 20260505114544 | 17 | 0 | 0.0 | 0.0 | 0.00 | 0.00 | 0.00 | 90 | 1019.4 |
| 20260505114030 | 16 | 0 | 0.0 | 0.0 | 0.00 | 0.00 | 0.00 | 91 | 1019.3 |
| 20260505113530 | 15 | 0 | 0.0 | 0.0 | 0.00 | 0.00 | 0.00 | 92 | 1019.3 |
| 20260505113041 | 15 | 0 | 0.0 | 0.0 | 0.00 | 0.00 | 0.00 | 93 | 1019.2 |
| 20260505112530 | 14 | 0 | 0.0 | 0.0 | 0.00 | 0.00 | 0.00 | 93 | 1019.3 |
| 20260505112029 | 13 | 0 | 0.0 | 0.0 | 0.00 | 0.00 | 0.00 | 94 | 1019.2 |
| 20260505111542 | 13 | 0 | 0.0 | 0.0 | 0.00 | 0.00 | 0.00 | 93 | 1019.1 |
| 20260505111029 | 12 | 0 | 0.0 | 0.0 | 0.00 | 0.00 | 0.00 | 94 | 1019.2 |
| 20260505110529 | 12 | 0 | 0.0 | 0.0 | 0.00 | 0.00 | 0.00 | 93 | 1019.2 |
| 20260505102028 | 12 | 0 | 0.0 | 0.0 | 0.00 | 0.00 | 0.00 | 93 | 1018.6 |
| 20260505101542 | 12 | 0 | 0.0 | 0.0 | 0.00 | 0.00 | 0.00 | 93 | 1018.6 |
| 20260505101029 | 12 | 0 | 0.0 | 0.0 | 0.00 | 0.00 | 0.00 | 93 | 1018.5 |
| 20260505100529 | 12 | 0 | 0.0 | 0.0 | 0.00 | 0.00 | 0.00 | 93 | 1018.5 |
| 20260505100042 | 12 | 0 | 0.0 | 0.0 | 0.00 | 0.00 | 0.00 | 93 | 1018.4 |
| 20260505095528 | 12 | 0 | 0.0 | 0.0 | 0.00 | 0.00 | 0.00 | 93 | 1018.4 |
| 20260505095033 | 12 | 0 | 0.0 | 0.0 | 0.00 | 0.00 | 0.00 | 93 | 1018.3 |
| 20260505094547 | 12 | 0 | 0.0 | 0.0 | 0.00 | 0.00 | 0.00 | 92 | 1018.3 |
| 20260505094029 | 12 | 0 | 0.0 | 0.0 | 0.00 | 0.00 | 0.00 | 92 | 1018.2 |
| 20260505093529 | 12 | 0 | 0.0 | 0.0 | 0.00 | 0.00 | 0.00 | 92 | 1018.2 |
| 20260505093049 | 12 | 0 | 0.0 | 0.0 | 0.00 | 0.00 | 0.00 | 92 | 1018.1 |
| 20260505092529 | 12 | 0 | 0.0 | 0.0 | 0.00 | 0.00 | 0.00 | 92 | 1018.1 |